Regional Weather Roundup
Issued by NWS

Home | Current Version | Previous Version | Graphics & Text | Print | Product List | Glossary On
Versions: 1 2 3 4 5 6 7 8 9 10 11 12 13 14 15 16 17 18 19 20 21 22 23 24 25 26 27 28 29 30 31 32 33 34 35 36 37 38 39 40 41 42 43 44 45 46 47 48 49 50
000
ASUS43 KMPX 030910
RWRMN
WEATHER ROUNDUP FOR MINNESOTA
NATIONAL WEATHER SERVICE TWIN CITIES/CHANHASSEN MN
400 AM CDT MON AUG 03 2015


NOTE: "FAIR" INDICATES FEW OR NO CLOUDS BELOW 12,000 FEET WITH NO
SIGNIFICANT WEATHER AND/OR OBSTRUCTIONS TO VISIBILITY. N/A MEANS
CURRENT SKY AND/OR WEATHER CONDITIONS ARE NOT AVAILABLE.

MNZ060>063-068>070-031000-
   Twin Cities Metro

CITY           SKY/WX    TMP DP  RH WIND       PRES   REMARKS
TWIN CITIES    CLEAR     63  52  67 W3        29.87S
ST PAUL        CLEAR     61  50  67 W5        29.86S
CRYSTAL        CLEAR     60  51  72 W7        29.85S
BLAINE         CLEAR     59  52  77 W3        29.86S
LAKEVILLE      CLEAR     54  52  94 CALM      29.88S
EDEN PRAIRIE   CLEAR     61  53  75 W3        29.87S
SOUTH ST PAUL  CLEAR     61  51  67 CALM      29.87R
LAKE ELMO      FAIR      55  52  88 CALM      29.87S
$$
MNZ001>005-007-008-013>017-022>024-027-028-031000-
   Northwest Minnesota

CITY           SKY/WX    TMP DP  RH WIND       PRES   REMARKS
BEMIDJI        MOCLDY    55  46  70 W8        29.85S
HALLOCK        CLEAR     52  48  87 NW3       29.87S
ROSEAU         CLEAR     55  50  82 W8        29.84S
WARROAD        MOCLDY    55  50  82 W6        29.83S
THIEF RVR FALL CLEAR     52  46  82 W6        29.87S
CROOKSTON      CLEAR     50  46  87 CALM      29.89S
FOSSTON        CLEAR     46  43  87 CALM      29.89S
DETROIT LAKES  CLEAR     55  50  82 NW5       29.91R
MOORHEAD       CLEAR     54  48  82 CALM      29.91R
PARK RAPIDS    CLEAR     49  46  90 W7        29.88S
MAHNOMEN       FAIR      50  48  93 W3        29.89R
$$
MNZ006-009>011-018-025>026-031000-
   North Central Minnesota

CITY           SKY/WX    TMP DP  RH WIND       PRES   REMARKS
BAUDETTE       CLOUDY    58  49  72 W9        29.80R
FLAG ISLAND    PTCLDY    57  52  82 NW18      29.79S
INTL FALLS     CLOUDY    56  50  80 W5        29.76S
WASKISH        CLEAR     59  52  77 W14       29.82S
BIG FORK       MOCLDY    55  46  71 CALM      29.81S
LONGVILLE      CLEAR     50  46  87 CALM      29.84S
GRAND RAPIDS   CLOUDY    57  46  67 W8        29.82R
CRANE LAKE     CLOUDY    57  48  72 W2        29.76S
ORR            CLOUDY    57  46  67 W8        29.74F
COOK           MOCLDY    54  46  76 W6        29.78R
WALKER         FAIR      52  47  83 W7        29.85S
$$
MNZ012-019>021-037-031000-
   Northeast Minnesota

CITY           SKY/WX    TMP DP  RH WIND       PRES   REMARKS
DULUTH         CLEAR     55  46  71 W10       29.78F
ELY            CLEAR     52  46  82 W3        29.74F
HIBBING        CLOUDY    54  45  71 W6        29.79S
EVELETH        MOCLDY    54  45  71 W3        29.79S
DULUTH HARBOR  CLEAR     59  52  77 SW8       29.78F
TWO HARBORS    CLEAR     54  48  82 CALM      29.74F
SILVER BAY     CLEAR     54  46  76 SW3       29.73S
GRAND MARAIS     N/A     45  42  89 W5        29.70S
G MARAIS ARPRT   N/A     55  45  67 W3        29.72S
$$
MNZ029>031-032-039>041-046>048-054>057-064-031000-
   West Central Minnesota

CITY           SKY/WX    TMP DP  RH WIND       PRES   REMARKS
FERGUS FALLS   CLEAR     52  48  87 CALM      29.91S
WHEATON        CLEAR     54  52  94 W3        29.93F
MORRIS         CLEAR     54  52  94 W6        29.90F
ALEXANDRIA     CLEAR     58  51  78 W9        29.92S
ELBOW LAKE     FAIR      54  51  89 NW7       29.91S
WADENA         CLEAR     54  48  82 W3        29.89S
GLENWOOD       CLEAR     55  52  88 W8        29.91S
APPLETON       CLEAR     55  54  94 CALM      29.91S
BENSON         CLEAR     52  48  87 CALM      29.91F
ORTONVILLE     CLEAR     59  52  77 NW3       29.92S
MADISON        CLEAR     55  52  88 W6        29.92S
WILLMAR        FAIR      54  52  94 CALM      29.93R
$$
MNZ033>034-036-042>043-049>051-058-059-031000-
   Central Minnesota

CITY           SKY/WX    TMP DP  RH WIND       PRES   REMARKS
ST CLOUD       CLEAR     54  50  86 NW6       29.87S
SAUK CENTRE    FAIR      54  50  86 CALM      29.90S
PAYNESVILLE    CLEAR     50  49  98 SW6       29.91S
AITKIN         PTCLDY    55  48  76 SW5       29.83S
PINE RIVER     CLEAR     54  48  82 CALM      29.90S
BRAINERD       CLEAR     49  47  93 S3        29.86S
STAPLES        CLEAR     52  48  87 CALM      29.89R
LONG PRAIRIE   FAIR      52  50  93 CALM      29.90S
LITTLE FALLS     N/A     46  45  93 CALM      29.89R
LITCHFIELD     CLEAR     63  55  77 W5        29.90S
BUFFALO        CLEAR     60  54  79 W5        29.88S
MAPLE LAKE     CLEAR     57  55  94 W5        29.89S
$$
MNZ037-044-045-052-053-031000-
   East Central Minnesota

CITY           SKY/WX    TMP DP  RH WIND       PRES   REMARKS
PRINCETON      CLEAR     52  48  87 CALM      29.87S
MORA           CLEAR     54  46  76 CALM      29.87S
CAMBRIDGE      CLEAR     57  46  67 CALM      29.84F
RUSH CITY      MOCLDY    55  49  82 CALM      29.85F
MOOSE LAKE     PTCLDY    52  46  82 W6        29.81S
HINCKLEY       FAIR      54  50  87 W7        29.84S
CLOQUET        CLEAR     54  45  71 W7        29.80F
MCGREGOR       CLEAR     55  46  71 W5        29.84S
$$
MNZ071>073-080-081-089-090-097-098-031000-
   Southwest Minnesota

CITY           SKY/WX    TMP DP  RH WIND       PRES   REMARKS
MONTEVIDEO     CLEAR     55  50  82 NW5       29.93S
GRANITE FALLS  CLEAR     52  51  95 W6        29.93S
CANBY          CLEAR     58  53  83 SW6       29.94S
MARSHALL       CLEAR     55  48  76 W5        29.93F
REDWOOD FALLS  CLEAR     56  51  84 W7        29.91S
OLIVIA         CLEAR     52  48  87 NW5       29.90S
PIPESTONE      CLEAR     61  55  82 CALM      29.96S
WINDOM         CLEAR     54  52  94 CALM      29.94S
WORTHINGTON    CLEAR     55  50  82 N5        29.95S
JACKSON        CLEAR     55  54  94 NW5       29.95R
TRACY          CLEAR     59  54  82 W7        29.94S
SLAYTON        CLEAR     56  55  94 CALM      29.96S
$$
MNZ065>067-074>077-082>085-091>093-031000-
   South Central Minnesota

CITY           SKY/WX    TMP DP  RH WIND       PRES   REMARKS
MANKATO        CLEAR     59  52  77 CALM      29.89F
NEW ULM        CLEAR     52  52 100 W5        29.90F
ST JAMES         N/A     57  54  88 SW3       29.93S
FAIRMONT       CLEAR     57  48  72 NW6       29.92S
GLENCOE        CLEAR     56  54  93 CALM      29.89S
FARIBAULT      CLEAR     55  52  88 CALM      29.89S
OWATONNA       CLEAR     52  48  87 CALM      29.89S
WASECA         CLEAR     52  50  93 CALM      29.91S
ALBERT LEA     CLEAR     57  54  88 CALM      29.91R
$$
MNZ078>079-086>088-094>096-031000-
   Southeast Minnesota

CITY           SKY/WX    TMP DP  RH WIND       PRES   REMARKS
ROCHESTER      CLEAR     56  52  86 NW9       29.89S
RED WING       CLEAR     55  52  88 CALM      29.86R
STANTON        CLEAR     55  51  87 CALM      29.86S
DODGE CENTER   PTCLDY    57  52  82 NW5       29.89F
WINONA         CLEAR     59  54  82 CALM      29.86R
AUSTIN         CLEAR     59  54  82 NW3       29.90R
PRESTON        CLEAR     56  52  86 NW7       29.89S
$$
ABBREVIATIONS USED IN REMARKS
   TC - TEMPERATURES IN CELSIUS
  WCI - WIND CHILL INDEX
   HX - HEAT INDEX
  VSB - VISIBILITY
$$



USA.gov is the U.S. government's official web portal to all federal, state and local government web resources and services.